				
					
						
					 | 
				
			
		
			
			
				
				
					
						 
					 | 
				
				
				
					
						
					 | 
				
				
				
					
					
					TNO 2010 LP68
					
					
					
					
						
					
					
						
							(Preview)
						
						
						
						
							
						
							
								Orbital elements:
2010 LP68
Epoch 2011 Aug. 27.0 TT = JDT 2455800.5                 MPC
M  48.23833              (2000.0)            P               Q
n   0.00451847     Peri.  298.11913     -0.92251523     +0.33865726
a  36.2361344      Node   262.17765     -0.25463687     -0.89451247
e   0.0290527      Incl.   10.77071     -0.29004432     -0.29181963
P 218              H    9.1           G   0.15           U   6 MPEC 2011 - M08... 
							 
							
						 
						
					
				 | 
				
					
						Blobrana
					 | 
				
				
					
						0
					 | 
				
				
				
					
						
					 | 
				
				
					
						
					 | 
				
			
		
			
			
				
				
					
						 
					 | 
				
				
				
					
						
					 | 
				
				
				
					
					
					Asteroid (8952) ODAS
					
					
					
					
						
					
					
						
							(Preview)
						
						
						
						
							
						
							
								Asteroid (8952) ODAS makes its closest approach to the Earth (1.415 AU) on the 16th June, 2011. Asteroid (8952) ODAS (1998 EG2) is a main-belt asteroid discovered on March 2, 1998 by the OCA-DLR Asteroid Survey at Caussols. Read more 
							 
							
						 
						
					
				 | 
				
					
						Blobrana
					 | 
				
				
					
						0
					 | 
				
				
				
					
						
					 | 
				
				
					
						
					 | 
				
			
		
			
			
				
				
					
						 
					 | 
				
				
				
					
						
					 | 
				
				
				
					
					
					Asteroid 2011 LH21
					
					
					
					
						
					
					
						
							(Preview)
						
						
						
						
							
						
							
								Orbital elements:
2011 LH21                                                Earth MOID = 0.0639 AU
Epoch 2011 Aug. 27.0 TT = JDT 2455800.5                 MPC
M  24.97629              (2000.0)            P               Q
n   0.40456985     Peri.   37.13500     +0.65402981     +0.74688622
a   1.8105355      Node   274.04334     -0.71973359     +0.56554348
e   0.4199700      Incl.    6.91083     -0.23287028     +0.34974498
P   2.44           H   20.3           G   0... 
							 
							
						 
						
					
				 | 
				
					
						Blobrana
					 | 
				
				
					
						0
					 | 
				
				
				
					
						
					 | 
				
				
					
						
					 |